Lumberton, NC

3:58 AM EDT on September 26, 2017 (GMT -0400)
Lumberton Municipal

Weather History for KLBT - July, 2014

Change the Weather History Date:

Thursday, July 10, 2014

  Actual Average Record
Temperature  
Mean Temperature 83 °F 81 °F  
Max Temperature 94 °F 91 °F 98 °F (2015)
Min Temperature 71 °F 71 °F 61 °F (2006)
Degree Days  
Heating Degree Days 0 0  
Month to date heating degree days 0 0  
Since 1 June heating degree days 0 0  
Since 1 July heating degree days 0 0  
Cooling Degree Days 18 16  
Month to date cooling degree days 169 160  
Year to date cooling degree days 915 798  
Since 1 June cooling degree days 627 548  
Growing Degree Days 32 (Base 50)    
Moisture  
Dew Point 71 °F    
Average Humidity 73    
Maximum Humidity 100    
Minimum Humidity 46    
Precipitation  
Precipitation 0.36 in 0.14 in 0.72 in (2002)
Month to date precipitation 0.68 1.41  
Year to date precipitation 25.51 20.82  
Sea Level Pressure  
Sea Level Pressure 30.05 in    
Wind  
Wind Speed 7 mph (SSE)    
Max Wind Speed 21 mph    
Max Gust Speed 27 mph    
Visibility 8 miles    
Events Rain , Thunderstorm    
T = Trace of Precipitation, MM = Missing Value Source: NWS Daily Summary

Daily Weather History Graph

Daily Weather History Graph

Search for Another Location

Airport or City:

Trip Planner

Search our weather history database for the weather conditions in past years. The results will help you decide how hot, cold, wet, or windy it might be!

Date:

Astronomy

Jul. 10, 2014 Rise Set
Actual Time 6:11 AM EDT 8:31 PM EDT
Civil Twilight 5:42 AM EDT 9:00 PM EDT
Nautical Twilight 5:06 AM EDT 9:36 PM EDT
Astronomical Twilight 4:27 AM EDT 10:14 PM EDT
Moon 6:44 PM EDT (7/10) 4:18 AM EDT (7/10)
Length of Visible Light 15h 17m
Length of Day
14h 19m
Waxing Gibbous, 95% of the Moon is Illuminated
Jul 10
Waxing Gibbous
Jul 12
Full
Jul 18
Last Quarter
Jul 26
New
Aug 3
First Quarter

Hourly Weather History & Observations

Time (EDT) Temp. Heat Index Dew Point Humidity Pressure Visibility Wind Dir Wind Speed Gust Speed Precip Events Conditions
12:54 AM 78.1 °F - 73.0 °F 84% 30.03 in 8.0 mi South 4.6 mph - N/A   Mostly Cloudy
1:54 AM 78.1 °F - 73.9 °F 87% 30.02 in 7.0 mi South 3.5 mph - 0.01 in Rain Light Rain
2:54 AM 77.0 °F - 73.9 °F 90% 30.01 in 7.0 mi South 8.1 mph - 0.00 in   Overcast
3:09 AM 78.1 °F - 73.9 °F 87% 30.02 in 7.0 mi SSW 8.1 mph - N/A Thunderstorm Mostly Cloudy
3:32 AM 75.9 °F - 72.0 °F 87% 30.01 in 2.5 mi South 10.4 mph - 0.05 in Rain Rain
3:39 AM 75.9 °F - 72.0 °F 87% 30.00 in 5.0 mi SSE 6.9 mph - 0.05 in Rain Light Rain
4:54 AM 73.9 °F - 71.1 °F 91% 30.01 in 7.0 mi South 3.5 mph - N/A   Scattered Clouds
5:54 AM 73.9 °F - 72.0 °F 93% 30.02 in 5.0 mi SE 3.5 mph - N/A   Partly Cloudy
6:36 AM 73.9 °F - 72.0 °F 93% 30.04 in 2.5 mi Calm Calm - N/A   Clear
6:54 AM 73.9 °F - 73.0 °F 97% 30.03 in 2.5 mi SSE 3.5 mph - N/A   Clear
7:40 AM 75.9 °F - 73.9 °F 94% 30.05 in 3.0 mi South 3.5 mph - N/A   Clear
7:54 AM 75.9 °F - 75.0 °F 97% 30.05 in 3.0 mi South 3.5 mph - N/A   Clear
8:51 AM 80.6 °F 86.2 °F 75.2 °F 84% 30.07 in 6.0 mi Variable 5.8 mph - N/A   Partly Cloudy
8:54 AM 80.1 °F 85.4 °F 75.9 °F 87% 30.06 in 6.0 mi SW 5.8 mph - N/A   Partly Cloudy
9:54 AM 82.9 °F 89.4 °F 73.9 °F 74% 30.07 in 8.0 mi South 6.9 mph - N/A   Clear
10:54 AM 86.0 °F 93.0 °F 73.0 °F 65% 30.08 in 10.0 mi South 5.8 mph - N/A   Clear
11:54 AM 88.0 °F 93.8 °F 71.1 °F 57% 30.07 in 10.0 mi SSE 8.1 mph - N/A   Partly Cloudy
12:54 PM 90.0 °F 96.9 °F 72.0 °F 55% 30.06 in 10.0 mi Variable 6.9 mph - N/A   Partly Cloudy
1:54 PM 93.9 °F 100.3 °F 70.0 °F 46% 30.02 in 10.0 mi SW 12.7 mph 17.3 mph N/A   Partly Cloudy
2:45 PM 87.1 °F 91.3 °F 69.1 °F 55% 30.01 in 10.0 mi SSW 9.2 mph - N/A Thunderstorm Clear
2:54 PM 84.9 °F 89.4 °F 70.0 °F 61% 30.03 in 10.0 mi SSW 11.5 mph 24.2 mph N/A Thunderstorm Thunderstorm
3:21 PM 82.9 °F 85.8 °F 68.0 °F 60% 30.02 in 10.0 mi Variable 5.8 mph - N/A Thunderstorm Scattered Clouds
3:37 PM 86.0 °F 88.8 °F 66.9 °F 53% 30.01 in 10.0 mi South 8.1 mph - N/A Thunderstorm Thunderstorm
3:49 PM 87.8 °F 90.4 °F 66.2 °F 49% 30.02 in 10.0 mi SSE 16.1 mph 24.2 mph N/A   Clear
3:54 PM 84.9 °F 87.1 °F 66.0 °F 53% 30.01 in 10.0 mi SE 15.0 mph 24.2 mph N/A   Clear
4:29 PM 82.9 °F 86.5 °F 69.1 °F 63% 30.03 in 10.0 mi SE 15.0 mph - N/A Thunderstorm Overcast
4:45 PM 82.9 °F 86.5 °F 69.1 °F 63% 30.05 in 10.0 mi NNW 11.5 mph 23.0 mph N/A Thunderstorm Thunderstorm
4:54 PM 78.1 °F - 70.0 °F 76% 30.04 in 10.0 mi North 19.6 mph 27.6 mph N/A Thunderstorm Mostly Cloudy
4:59 PM 78.1 °F - 70.0 °F 76% 30.04 in 10.0 mi NNE 15.0 mph 27.6 mph N/A Thunderstorm Mostly Cloudy
5:54 PM 73.0 °F - 70.0 °F 90% 30.05 in 2.5 mi NNW 8.1 mph - 0.06 in Rain , Thunderstorm Heavy Rain
6:10 PM 73.0 °F - 70.0 °F 90% 30.03 in 5.0 mi NNE 9.2 mph - 0.03 in Rain , Thunderstorm Light Rain
6:37 PM 73.0 °F - 70.0 °F 90% 30.05 in 9.0 mi WNW 10.4 mph - 0.04 in Rain , Thunderstorm Light Thunderstorms and Rain
6:44 PM 73.0 °F - 71.1 °F 93% 30.05 in 1.0 mi Variable 3.5 mph - 0.12 in Rain , Thunderstorm Heavy Thunderstorms and Rain
6:52 PM 71.6 °F - 71.6 °F 100% 30.06 in 1.8 mi Calm Calm - 0.14 in Rain , Thunderstorm Thunderstorms and Rain
6:54 PM 73.0 °F - 71.1 °F 93% 30.05 in 2.5 mi Calm Calm - 0.14 in Rain , Thunderstorm Light Thunderstorms and Rain
7:01 PM 73.0 °F - 71.1 °F 93% 30.05 in 4.0 mi Calm Calm - 0.01 in Rain , Thunderstorm Light Thunderstorms and Rain
7:35 PM 73.0 °F - 71.1 °F 93% 30.08 in 8.0 mi ESE 9.2 mph - 0.06 in Rain , Thunderstorm Light Rain
7:54 PM 72.0 °F - 70.0 °F 93% 30.06 in 10.0 mi ESE 6.9 mph - 0.06 in Thunderstorm Overcast
8:02 PM 72.0 °F - 70.0 °F 93% 30.06 in 10.0 mi SE 5.8 mph - N/A   Mostly Cloudy
8:14 PM 72.0 °F - 70.0 °F 93% 30.07 in 10.0 mi SSE 6.9 mph - N/A Thunderstorm Partly Cloudy
8:29 PM 72.0 °F - 69.1 °F 91% 30.08 in 7.0 mi SE 9.2 mph - 0.01 in Rain Light Rain
8:44 PM 71.1 °F - 70.0 °F 96% 30.09 in 10.0 mi SE 6.9 mph - 0.02 in Rain Light Rain
8:54 PM 71.1 °F - 70.0 °F 96% 30.09 in 10.0 mi East 5.8 mph - 0.02 in   Scattered Clouds
9:14 PM 72.0 °F - 70.0 °F 93% 30.08 in 10.0 mi SE 3.5 mph - N/A   Mostly Cloudy
9:32 PM 72.0 °F - 70.0 °F 93% 30.09 in 10.0 mi East 3.5 mph - N/A   Overcast
9:39 PM 72.0 °F - 70.0 °F 93% 30.09 in 10.0 mi ESE 3.5 mph - N/A   Overcast
9:54 PM 72.0 °F - 70.0 °F 93% 30.09 in 10.0 mi NE 3.5 mph - N/A   Mostly Cloudy
10:54 PM 72.0 °F - 70.0 °F 93% 30.09 in 10.0 mi East 5.8 mph - N/A   Partly Cloudy
11:54 PM 71.1 °F - 70.0 °F 96% 30.11 in 10.0 mi East 6.9 mph - N/A   Partly Cloudy